ACA1025 KFLL-CYYZ

Flight info

Callsign ACA1025
Flight time N/A
Altitude 37000
Route AGERS1 DUCEN Q87 VIYAP/N0480F390 Q69 RICCS DCT OXMAN LINNG3
Aircraft B77W/H-SDE1E2E3FGHIJ2J3J4J5M1RWXY/LB1D1

Departure

Time N/A
Airport Fort Lauderdale Hollywood International Airport (KFLL)

Arrival

Time 2026-05-04 01:18
Airport Toronto Pearson International Airport (CYYZ)
Time Latitude Longitude Altitude Speed Heading
2026-05-04 00:03 35.78642 -80.53761 37073 ft 495 kts 358°
2026-05-04 00:03 35.82063 -80.53118 37073 ft 494 kts 358°
2026-05-04 00:03 35.88867 -80.51836 37073 ft 494 kts 358°
2026-05-04 00:04 35.95648 -80.50556 37075 ft 495 kts 358°
2026-05-04 00:04 36.02457 -80.49269 37076 ft 494 kts 358°
2026-05-04 00:05 36.09226 -80.47987 37076 ft 491 kts 358°
2026-05-04 00:05 36.15974 -80.46713 37079 ft 491 kts 358°
2026-05-04 00:06 36.22734 -80.45427 37080 ft 491 kts 358°
2026-05-04 00:06 36.29506 -80.44135 37080 ft 492 kts 358°
2026-05-04 00:07 36.36265 -80.42844 37082 ft 492 kts 358°
2026-05-04 00:07 36.43023 -80.41545 37082 ft 492 kts 359°
2026-05-04 00:08 36.49782 -80.40165 37081 ft 492 kts 359°
2026-05-04 00:08 36.56527 -80.38783 37081 ft 491 kts 359°
2026-05-04 00:09 36.63258 -80.37404 37081 ft 491 kts 359°
2026-05-04 00:09 36.69992 -80.36023 37082 ft 490 kts 359°
2026-05-04 00:10 36.76684 -80.34687 37082 ft 487 kts 358°
2026-05-04 00:10 36.83408 -80.33749 37086 ft 485 kts 355°
2026-05-04 00:11 36.90107 -80.32885 37087 ft 483 kts 356°
2026-05-04 00:11 36.96788 -80.31960 37088 ft 485 kts 357°
2026-05-04 00:12 37.03522 -80.31005 37091 ft 487 kts 358°
2026-05-04 00:12 37.10249 -80.30048 37093 ft 487 kts 358°
2026-05-04 00:13 37.16977 -80.29092 37094 ft 485 kts 358°
2026-05-04 00:13 37.23568 -80.28151 37095 ft 485 kts 358°
2026-05-04 00:14 37.30284 -80.27188 37092 ft 485 kts 358°
2026-05-04 00:14 37.36987 -80.26231 37087 ft 484 kts 358°
2026-05-04 00:15 37.43680 -80.25269 37082 ft 484 kts 358°
2026-05-04 00:15 37.50368 -80.24303 37077 ft 483 kts 358°
2026-05-04 00:16 37.57044 -80.23338 37074 ft 483 kts 358°
2026-05-04 00:16 37.63728 -80.22370 37070 ft 483 kts 358°
2026-05-04 00:17 37.70368 -80.21384 37067 ft 483 kts 358°
2026-05-04 00:17 37.77040 -80.20380 37063 ft 482 kts 358°
2026-05-04 00:18 37.83703 -80.19377 37063 ft 482 kts 358°
2026-05-04 00:18 37.90370 -80.18372 37061 ft 483 kts 358°
2026-05-04 00:19 37.97035 -80.17365 37060 ft 483 kts 358°
2026-05-04 00:19 38.03708 -80.16362 37060 ft 483 kts 358°
2026-05-04 00:20 38.10376 -80.15361 37060 ft 483 kts 358°
2026-05-04 00:20 38.17047 -80.14350 37060 ft 483 kts 358°
2026-05-04 00:21 38.23713 -80.13335 37060 ft 483 kts 358°
2026-05-04 00:21 38.30384 -80.12318 37060 ft 483 kts 358°
2026-05-04 00:22 38.37044 -80.11312 37059 ft 481 kts 357°
2026-05-04 00:22 38.43686 -80.10816 37060 ft 477 kts 353°
2026-05-04 00:23 38.50307 -80.10606 37060 ft 475 kts 353°
2026-05-04 00:23 38.56916 -80.10292 37060 ft 475 kts 353°
2026-05-04 00:24 38.62396 -80.10005 37060 ft 474 kts 353°
2026-05-04 00:24 38.68998 -80.09652 37060 ft 475 kts 354°
2026-05-04 00:25 38.75597 -80.09295 37060 ft 474 kts 354°
2026-05-04 00:25 38.82186 -80.08938 37060 ft 474 kts 354°
2026-05-04 00:26 38.88774 -80.08581 37060 ft 473 kts 354°
2026-05-04 00:26 38.95355 -80.07934 37061 ft 477 kts 359°
2026-05-04 00:27 39.01928 -80.06542 37057 ft 480 kts
2026-05-04 00:27 39.08471 -80.04975 37056 ft 482 kts
2026-05-04 00:28 39.15066 -80.03482 37052 ft 481 kts
2026-05-04 00:28 39.21662 -80.02029 37048 ft 480 kts
2026-05-04 00:29 39.28237 -80.00597 37046 ft 479 kts
2026-05-04 00:29 39.34811 -79.99176 37044 ft 479 kts
2026-05-04 00:30 39.41392 -79.97748 37045 ft 480 kts
2026-05-04 00:30 39.47978 -79.96314 37048 ft 480 kts
2026-05-04 00:31 39.54561 -79.94878 37049 ft 479 kts
2026-05-04 00:31 39.61134 -79.93440 37050 ft 479 kts
2026-05-04 00:32 39.67703 -79.92001 37050 ft 479 kts
2026-05-04 00:32 39.74274 -79.90558 37049 ft 479 kts
2026-05-04 00:33 39.84113 -79.88393 37046 ft 478 kts
2026-05-04 00:34 39.90666 -79.86947 37044 ft 478 kts
2026-05-04 00:34 39.97231 -79.85496 37038 ft 478 kts
2026-05-04 00:35 40.03784 -79.84045 37037 ft 478 kts
2026-05-04 00:35 40.10345 -79.82589 37034 ft 478 kts
2026-05-04 00:36 40.16908 -79.81130 37029 ft 478 kts
2026-05-04 00:36 40.23464 -79.79669 37023 ft 478 kts
2026-05-04 00:37 40.30025 -79.78205 37017 ft 478 kts
2026-05-04 00:37 40.36591 -79.76736 37014 ft 478 kts
2026-05-04 00:38 40.43149 -79.75267 37013 ft 478 kts
2026-05-04 00:38 40.49716 -79.73792 37013 ft 479 kts
2026-05-04 00:39 40.56285 -79.72314 37013 ft 479 kts
2026-05-04 00:39 40.62821 -79.70841 37013 ft 478 kts
2026-05-04 00:40 40.69394 -79.69356 37010 ft 478 kts
2026-05-04 00:40 40.75957 -79.67871 37008 ft 478 kts
2026-05-04 00:41 40.82520 -79.66382 37006 ft 478 kts
2026-05-04 00:41 40.89079 -79.64892 37002 ft 478 kts
2026-05-04 00:42 40.95639 -79.63398 36998 ft 479 kts
2026-05-04 00:42 41.02161 -79.61910 36994 ft 479 kts
2026-05-04 00:43 41.08731 -79.60408 36989 ft 479 kts
2026-05-04 00:43 41.15295 -79.58904 36987 ft 479 kts
2026-05-04 00:44 41.21862 -79.57397 36980 ft 478 kts
2026-05-04 00:44 41.28422 -79.55888 36978 ft 478 kts
2026-05-04 00:45 41.34979 -79.54376 36978 ft 478 kts
2026-05-04 00:45 41.41524 -79.52865 36971 ft 478 kts
2026-05-04 00:46 41.48079 -79.51348 36971 ft 477 kts
2026-05-04 00:46 41.54625 -79.49829 36967 ft 478 kts
2026-05-04 00:47 41.61175 -79.48307 36388 ft 478 kts
2026-05-04 00:47 41.64436 -79.47548 35733 ft 475 kts
2026-05-04 00:47 41.67688 -79.46791 35121 ft 473 kts
2026-05-04 00:47 41.70924 -79.46036 34570 ft 469 kts
2026-05-04 00:48 41.74125 -79.45289 34076 ft 465 kts
2026-05-04 00:48 41.77294 -79.44548 33588 ft 460 kts
2026-05-04 00:48 41.80435 -79.43816 33109 ft 456 kts
2026-05-04 00:48 41.83542 -79.43094 32646 ft 451 kts
2026-05-04 00:49 41.86622 -79.42374 32187 ft 447 kts
2026-05-04 00:49 41.89668 -79.41659 31736 ft 442 kts
2026-05-04 00:49 41.92686 -79.40948 31289 ft 438 kts
2026-05-04 00:49 41.95675 -79.40244 30843 ft 434 kts
2026-05-04 00:50 41.98631 -79.39547 30404 ft 430 kts
2026-05-04 00:50 42.01560 -79.38855 29969 ft 425 kts
2026-05-04 00:50 42.04463 -79.38169 29513 ft 421 kts
2026-05-04 00:50 42.07336 -79.37491 29043 ft 418 kts
2026-05-04 00:51 42.10182 -79.36820 28569 ft 414 kts
2026-05-04 00:51 42.13013 -79.36302 28093 ft 408 kts
2026-05-04 00:51 42.15828 -79.35993 27623 ft 403 kts 358°
2026-05-04 00:51 42.18614 -79.35805 27158 ft 399 kts 357°
2026-05-04 00:52 42.21373 -79.35665 26698 ft 395 kts 357°
2026-05-04 00:52 42.24078 -79.35506 26245 ft 393 kts 358°
2026-05-04 00:52 42.26797 -79.35319 25786 ft 390 kts 358°
2026-05-04 00:52 42.29496 -79.35116 25330 ft 387 kts 358°
2026-05-04 00:53 42.32207 -79.34908 24871 ft 384 kts 358°
2026-05-04 00:53 42.34834 -79.34702 24428 ft 381 kts 358°
2026-05-04 00:53 42.37474 -79.34492 23977 ft 379 kts 358°
2026-05-04 00:53 42.40128 -79.34279 23524 ft 376 kts 358°
2026-05-04 00:54 42.42729 -79.34070 23080 ft 373 kts 358°
2026-05-04 00:54 42.45320 -79.33861 22632 ft 371 kts 358°
2026-05-04 00:54 42.47854 -79.33656 22195 ft 369 kts 358°
2026-05-04 00:54 42.50406 -79.33450 21755 ft 366 kts 358°
2026-05-04 00:55 42.52974 -79.33242 21308 ft 364 kts 358°
2026-05-04 00:55 42.55427 -79.33043 20881 ft 362 kts 358°
2026-05-04 00:55 42.57998 -79.32835 20432 ft 359 kts 358°
2026-05-04 00:55 42.60453 -79.32637 20000 ft 357 kts 358°
2026-05-04 00:56 42.62929 -79.32435 19560 ft 355 kts 358°
2026-05-04 00:56 42.65382 -79.32237 19125 ft 353 kts 358°
2026-05-04 00:56 42.67834 -79.32039 18688 ft 351 kts 358°
2026-05-04 00:56 42.70259 -79.31841 18250 ft 349 kts 358°
2026-05-04 00:57 42.72685 -79.31644 17812 ft 347 kts 358°
2026-05-04 00:57 42.75093 -79.31447 17375 ft 346 kts 358°
2026-05-04 00:57 42.77480 -79.31252 17061 ft 340 kts 358°
2026-05-04 00:57 42.79856 -79.31058 16677 ft 337 kts 358°
2026-05-04 00:58 42.82163 -79.30871 16271 ft 335 kts 358°
2026-05-04 00:58 42.84460 -79.30815 16194 ft 326 kts 354°
2026-05-04 00:58 42.86750 -79.30941 16123 ft 335 kts 352°
2026-05-04 00:58 42.89110 -79.31174 15814 ft 346 kts 350°
2026-05-04 00:59 42.91536 -79.31475 15210 ft 353 kts 350°
2026-05-04 00:59 42.93956 -79.31773 15000 ft 343 kts 350°
2026-05-04 00:59 42.96295 -79.32041 14816 ft 335 kts 350°
2026-05-04 00:59 42.98610 -79.32291 14613 ft 333 kts 350°
2026-05-04 01:00 43.00927 -79.32528 14395 ft 335 kts 351°
2026-05-04 01:00 43.03251 -79.32762 14185 ft 334 kts 351°
2026-05-04 01:00 43.05565 -79.32993 13968 ft 333 kts 351°
2026-05-04 01:00 43.07871 -79.33222 13751 ft 332 kts 350°
2026-05-04 01:01 43.10181 -79.33446 13538 ft 332 kts 351°
2026-05-04 01:01 43.12483 -79.33679 13317 ft 331 kts 351°
2026-05-04 01:01 43.14771 -79.33915 13104 ft 329 kts 350°
2026-05-04 01:01 43.17060 -79.34147 12889 ft 329 kts 351°
2026-05-04 01:02 43.19339 -79.34379 12674 ft 328 kts 351°
2026-05-04 01:02 43.21612 -79.34607 12462 ft 327 kts 351°
2026-05-04 01:02 43.23882 -79.34836 12251 ft 326 kts 351°
2026-05-04 01:02 43.26145 -79.35064 12042 ft 326 kts 351°
2026-05-04 01:03 43.28380 -79.35455 11834 ft 322 kts 343°
2026-05-04 01:03 43.30574 -79.36040 11638 ft 321 kts 345°
2026-05-04 01:03 43.32705 -79.36727 11432 ft 308 kts 336°
2026-05-04 01:03 43.34585 -79.37774 11256 ft 297 kts 329°
2026-05-04 01:04 43.36356 -79.39115 11114 ft 285 kts 324°
2026-05-04 01:04 43.38070 -79.40421 10858 ft 282 kts 327°
2026-05-04 01:04 43.39831 -79.41613 10494 ft 282 kts 328°
2026-05-04 01:04 43.41604 -79.42750 10207 ft 279 kts 328°
2026-05-04 01:05 43.43351 -79.43862 9925 ft 273 kts 328°
2026-05-04 01:05 43.45046 -79.44954 9638 ft 267 kts 328°
2026-05-04 01:05 43.46719 -79.46034 9324 ft 262 kts 327°
2026-05-04 01:05 43.48352 -79.47088 9071 ft 255 kts 327°
2026-05-04 01:06 43.49923 -79.48103 8819 ft 250 kts 326°
2026-05-04 01:06 43.51484 -79.49112 8566 ft 245 kts 326°
2026-05-04 01:06 43.53017 -79.50102 8328 ft 240 kts 326°
2026-05-04 01:06 43.54509 -79.51068 8160 ft 232 kts 326°
2026-05-04 01:07 43.55940 -79.51991 8101 ft 222 kts 325°
2026-05-04 01:07 43.57327 -79.52877 8086 ft 218 kts 325°
2026-05-04 01:07 43.58716 -79.53703 8036 ft 220 kts 332°
2026-05-04 01:07 43.60363 -79.53815 7694 ft 259 kts 360°
2026-05-04 01:08 43.62075 -79.52712 7357 ft 284 kts 28°
2026-05-04 01:08 43.63351 -79.50641 7190 ft 283 kts 51°
2026-05-04 01:08 43.64326 -79.48328 7028 ft 274 kts 53°
2026-05-04 01:08 43.65395 -79.46206 6849 ft 267 kts 47°
2026-05-04 01:09 43.66584 -79.44245 6627 ft 264 kts 43°
2026-05-04 01:09 43.67824 -79.42416 6477 ft 265 kts 40°
2026-05-04 01:09 43.68683 -79.41193 6359 ft 262 kts 40°
2026-05-04 01:09 43.70354 -79.38781 6146 ft 263 kts 40°
2026-05-04 01:10 43.71610 -79.36951 5995 ft 261 kts 40°
2026-05-04 01:10 43.72859 -79.35126 5784 ft 263 kts 40°
2026-05-04 01:10 43.74116 -79.33288 5494 ft 263 kts 41°
2026-05-04 01:10 43.74966 -79.32041 5273 ft 263 kts 41°
2026-05-04 01:11 43.76277 -79.30309 4955 ft 256 kts 30°
2026-05-04 01:11 43.77864 -79.29462 4627 ft 238 kts
2026-05-04 01:11 43.79405 -79.29816 4300 ft 216 kts 331°
2026-05-04 01:11 43.80580 -79.30896 4029 ft 189 kts 308°
2026-05-04 01:12 43.81037 -79.32449 3998 ft 172 kts 274°
2026-05-04 01:12 43.80910 -79.34091 4004 ft 172 kts 262°
2026-05-04 01:12 43.80710 -79.35728 4000 ft 174 kts 260°
2026-05-04 01:12 43.80499 -79.37396 4000 ft 176 kts 259°
2026-05-04 01:13 43.80290 -79.39064 4005 ft 175 kts 259°
2026-05-04 01:13 43.80090 -79.40727 3999 ft 175 kts 259°
2026-05-04 01:13 43.79740 -79.42319 3968 ft 175 kts 241°
2026-05-04 01:13 43.78908 -79.43588 3740 ft 179 kts 228°
2026-05-04 01:14 43.77982 -79.44742 3499 ft 179 kts 226°
2026-05-04 01:14 43.77069 -79.45917 3251 ft 179 kts 227°
2026-05-04 01:14 43.76196 -79.47131 3034 ft 178 kts 228°
2026-05-04 01:14 43.75342 -79.48367 2790 ft 177 kts 228°
2026-05-04 01:15 43.74486 -79.49613 2549 ft 179 kts 228°
2026-05-04 01:15 43.73623 -79.50866 2303 ft 180 kts 228°
2026-05-04 01:15 43.72771 -79.52105 2065 ft 173 kts 228°
2026-05-04 01:15 43.71982 -79.53253 1841 ft 159 kts 227°
2026-05-04 01:16 43.71253 -79.54313 1637 ft 142 kts 227°
2026-05-04 01:16 43.70587 -79.55281 1456 ft 137 kts 227°
2026-05-04 01:16 43.69939 -79.56221 1287 ft 136 kts 226°
2026-05-04 01:16 43.69270 -79.57182 1112 ft 137 kts 226°
2026-05-04 01:17 43.68602 -79.58127 961 ft 138 kts 226°
2026-05-04 01:17 43.67945 -79.59071 759 ft 139 kts 228°
2026-05-04 01:17 43.67300 -79.60052 597 ft 133 kts 225°
2026-05-04 01:17 43.66734 -79.60867 583 ft 101 kts 226°
2026-05-04 01:18 43.66403 -79.61357 583 ft 45 kts 226°
2026-05-04 01:18 43.66229 -79.61606 583 ft 29 kts 227°
2026-05-04 01:18 43.66099 -79.61804 583 ft 26 kts 229°
2026-05-04 01:18 43.66009 -79.62005 583 ft 23 kts 248°
2026-05-04 01:19 43.65992 -79.62182 583 ft 18 kts 295°
2026-05-04 01:19 43.66072 -79.62303 583 ft 17 kts 317°
2026-05-04 01:19 43.66155 -79.62409 583 ft 16 kts 317°
2026-05-04 01:19 43.66240 -79.62496 583 ft 15 kts 346°
2026-05-04 01:20 43.66327 -79.62442 583 ft 14 kts 43°
2026-05-04 01:20 43.66395 -79.62354 583 ft 13 kts 43°
2026-05-04 01:20 43.66460 -79.62272 583 ft 12 kts 43°
2026-05-04 01:20 43.66520 -79.62195 583 ft 11 kts 42°
2026-05-04 01:21 43.66577 -79.62123 583 ft 11 kts 43°
2026-05-04 01:21 43.66629 -79.62057 583 ft 10 kts 42°
2026-05-04 01:21 43.66679 -79.61994 583 ft 9 kts 42°
2026-05-04 01:21 43.66727 -79.61935 583 ft 9 kts 42°
2026-05-04 01:22 43.66777 -79.61871 583 ft 10 kts 42°
2026-05-04 01:22 43.66828 -79.61809 583 ft 9 kts 41°
2026-05-04 01:22 43.66875 -79.61749 583 ft 9 kts 42°
2026-05-04 01:22 43.66919 -79.61693 583 ft 8 kts 42°
2026-05-04 01:23 43.66961 -79.61639 583 ft 8 kts 45°
2026-05-04 01:23 43.67000 -79.61588 583 ft 7 kts 43°
2026-05-04 01:23 43.67039 -79.61538 583 ft 11 kts 41°
2026-05-04 01:23 43.67096 -79.61469 583 ft 10 kts 41°
2026-05-04 01:24 43.67149 -79.61403 583 ft 10 kts 43°
2026-05-04 01:24 43.67196 -79.61333 583 ft 10 kts 51°
2026-05-04 01:24 43.67238 -79.61259 583 ft 9 kts 52°
2026-05-04 01:24 43.67276 -79.61190 583 ft 8 kts 54°
2026-05-04 01:25 43.67277 -79.61188 583 ft 0 kts 53°
2026-05-04 01:25 43.67281 -79.61179 583 ft 5 kts 54°
2026-05-04 01:25 43.67299 -79.61146 583 ft 4 kts 54°
2026-05-04 01:25 43.67315 -79.61115 583 ft 4 kts 54°
2026-05-04 01:26 43.67332 -79.61083 583 ft 7 kts 45°
2026-05-04 01:26 43.67379 -79.61088 583 ft 7 kts 342°
2026-05-04 01:26 43.67424 -79.61103 583 ft 6 kts 350°
2026-05-04 01:26 43.67462 -79.61126 583 ft 6 kts 310°
2026-05-04 01:27 43.67475 -79.61178 583 ft 6 kts 281°
2026-05-04 01:27 43.67481 -79.61229 583 ft 5 kts 281°
2026-05-04 01:27 43.67490 -79.61277 583 ft 7 kts 288°
2026-05-04 01:27 43.67510 -79.61345 583 ft 7 kts 295°
2026-05-04 01:28 43.67534 -79.61403 583 ft 2 kts 318°
2026-05-04 01:28 43.67545 -79.61399 583 ft 3 kts 28°
2026-05-04 01:28 43.67573 -79.61372 583 ft 6 kts 38°
2026-05-04 01:28 43.67602 -79.61337 583 ft 3 kts 41°
2026-05-04 01:29 43.67608 -79.61330 583 ft 0 kts 41°